TimeAKST,TemperatureF,Dew PointF,Humidity,Sea Level PressureIn,VisibilityMPH,Wind Direction,Wind SpeedMPH,Gust SpeedMPH,PrecipitationIn,Events,Conditions,WindDirDegrees,DateUTC
12:16 AM,35.6,21.2,56,29.12,10.0,SE,9.2,16.1,N/A,,Mostly Cloudy,140,2012-11-19 09:16:00
12:36 AM,35.6,21.2,56,29.12,10.0,ESE,15.0,21.9,N/A,,Mostly Cloudy,110,2012-11-19 09:36:00
12:56 AM,35.6,19.4,52,29.12,10.0,East,15.0,19.6,N/A,,Clear,100,2012-11-19 09:56:00
1:16 AM,35.6,21.2,56,29.13,10.0,East,12.7,24.2,N/A,,Mostly Cloudy,90,2012-11-19 10:16:00
1:36 AM,35.6,19.4,52,29.13,10.0,East,11.5,-,N/A,,Scattered Clouds,100,2012-11-19 10:36:00
1:56 AM,35.6,23.0,60,29.14,10.0,East,15.0,-,N/A,,Mostly Cloudy,100,2012-11-19 10:56:00
2:16 AM,35.6,21.2,56,29.15,10.0,East,13.8,19.6,N/A,,Overcast,100,2012-11-19 11:16:00
2:36 AM,35.6,23.0,60,29.15,10.0,ESE,12.7,-,N/A,,Overcast,110,2012-11-19 11:36:00
2:56 AM,35.6,23.0,60,29.14,10.0,ESE,12.7,-,N/A,,Overcast,110,2012-11-19 11:56:00
3:16 AM,35.6,24.8,65,29.13,10.0,East,15.0,20.7,N/A,,Overcast,100,2012-11-19 12:16:00
3:36 AM,35.6,23.0,60,29.13,10.0,East,15.0,19.6,N/A,,Overcast,100,2012-11-19 12:36:00
3:56 AM,35.6,24.8,65,29.13,10.0,ESE,13.8,18.4,N/A,,Overcast,110,2012-11-19 12:56:00
4:16 AM,35.6,24.8,65,29.13,10.0,East,13.8,20.7,N/A,,Mostly Cloudy,100,2012-11-19 13:16:00
4:36 AM,35.6,24.8,65,29.13,10.0,East,15.0,20.7,N/A,,Overcast,100,2012-11-19 13:36:00
4:56 AM,35.6,24.8,65,29.14,10.0,East,15.0,-,N/A,,Overcast,80,2012-11-19 13:56:00
5:16 AM,35.6,24.8,65,29.14,10.0,East,15.0,-,N/A,,Overcast,90,2012-11-19 14:16:00
5:36 AM,35.6,24.8,65,29.14,10.0,East,11.5,-,N/A,,Mostly Cloudy,80,2012-11-19 14:36:00
5:56 AM,37.4,26.6,65,29.14,10.0,East,19.6,24.2,N/A,,Mostly Cloudy,100,2012-11-19 14:56:00
6:16 AM,37.4,28.4,70,29.17,10.0,East,13.8,24.2,N/A,,Mostly Cloudy,90,2012-11-19 15:16:00
6:36 AM,37.4,26.6,65,29.17,10.0,East,17.3,23.0,N/A,,Mostly Cloudy,80,2012-11-19 15:36:00
6:56 AM,37.4,26.6,65,29.18,10.0,East,16.1,20.7,N/A,,Mostly Cloudy,100,2012-11-19 15:56:00
7:16 AM,37.4,24.8,60,29.19,10.0,East,15.0,21.9,N/A,,Mostly Cloudy,80,2012-11-19 16:16:00
7:36 AM,35.6,24.8,65,29.19,10.0,East,13.8,-,N/A,,Mostly Cloudy,100,2012-11-19 16:36:00
7:56 AM,37.4,23.0,56,29.20,10.0,ESE,17.3,21.9,N/A,,Mostly Cloudy,110,2012-11-19 16:56:00
8:16 AM,35.6,23.0,60,29.21,10.0,East,17.3,23.0,N/A,,Mostly Cloudy,100,2012-11-19 17:16:00
8:36 AM,35.6,24.8,65,29.22,10.0,East,17.3,-,N/A,,Mostly Cloudy,90,2012-11-19 17:36:00
8:56 AM,35.6,21.2,56,29.22,10.0,East,16.1,21.9,N/A,,Mostly Cloudy,90,2012-11-19 17:56:00
9:16 AM,35.6,21.2,56,29.22,10.0,East,15.0,19.6,N/A,,Mostly Cloudy,100,2012-11-19 18:16:00
9:36 AM,37.4,23.0,56,29.23,10.0,East,13.8,-,N/A,,Mostly Cloudy,100,2012-11-19 18:36:00
9:56 AM,37.4,24.8,60,29.23,10.0,East,13.8,19.6,N/A,,Mostly Cloudy,90,2012-11-19 18:56:00
10:16 AM,37.4,24.8,60,29.24,10.0,East,12.7,-,N/A,,Mostly Cloudy,100,2012-11-19 19:16:00
10:36 AM,37.4,24.8,60,29.24,10.0,East,12.7,-,N/A,,Mostly Cloudy,100,2012-11-19 19:36:00
10:56 AM,37.4,24.8,60,29.24,10.0,East,15.0,19.6,N/A,,Mostly Cloudy,90,2012-11-19 19:56:00
11:16 AM,37.4,24.8,60,29.24,10.0,East,13.8,20.7,N/A,,Mostly Cloudy,90,2012-11-19 20:16:00
11:36 AM,37.4,23.0,56,29.23,10.0,East,17.3,-,N/A,,Mostly Cloudy,100,2012-11-19 20:36:00
11:56 AM,37.4,23.0,56,29.24,10.0,East,12.7,-,N/A,,Mostly Cloudy,100,2012-11-19 20:56:00
12:16 PM,37.4,23.0,56,29.24,10.0,East,16.1,-,N/A,,Mostly Cloudy,90,2012-11-19 21:16:00
12:36 PM,37.4,24.8,60,29.25,10.0,East,15.0,-,N/A,,Mostly Cloudy,90,2012-11-19 21:36:00
12:56 PM,37.4,24.8,60,29.25,10.0,East,13.8,-,N/A,,Mostly Cloudy,90,2012-11-19 21:56:00
1:16 PM,37.4,24.8,60,29.25,10.0,East,16.1,21.9,N/A,,Mostly Cloudy,90,2012-11-19 22:16:00
1:36 PM,37.4,21.2,52,29.25,10.0,ESE,17.3,20.7,N/A,,Mostly Cloudy,110,2012-11-19 22:36:00
1:56 PM,37.4,21.2,52,29.26,10.0,East,16.1,20.7,N/A,,Mostly Cloudy,100,2012-11-19 22:56:00
2:16 PM,37.4,23.0,56,29.27,10.0,East,13.8,-,N/A,,Mostly Cloudy,90,2012-11-19 23:16:00
2:36 PM,37.4,23.0,56,29.28,10.0,East,16.1,19.6,N/A,,Mostly Cloudy,100,2012-11-19 23:36:00
2:56 PM,37.4,21.2,52,29.28,10.0,ESE,15.0,19.6,N/A,,Mostly Cloudy,110,2012-11-19 23:56:00
3:16 PM,37.4,21.2,52,29.29,10.0,East,13.8,-,N/A,,Mostly Cloudy,100,2012-11-20 00:16:00
3:36 PM,37.4,21.2,52,29.29,10.0,East,16.1,20.7,N/A,,Mostly Cloudy,90,2012-11-20 00:36:00
3:56 PM,37.4,23.0,56,29.30,10.0,East,15.0,20.7,N/A,,Overcast,100,2012-11-20 00:56:00
4:16 PM,37.4,21.2,52,29.30,10.0,ESE,17.3,23.0,N/A,,Overcast,110,2012-11-20 01:16:00
4:36 PM,37.4,21.2,52,29.30,10.0,East,17.3,20.7,N/A,,Overcast,100,2012-11-20 01:36:00
4:56 PM,37.4,21.2,52,29.30,10.0,East,17.3,21.9,N/A,,Overcast,90,2012-11-20 01:56:00
5:16 PM,37.4,21.2,52,29.30,10.0,East,17.3,24.2,N/A,,Overcast,100,2012-11-20 02:16:00
5:36 PM,37.4,21.2,52,29.31,10.0,East,15.0,-,N/A,,Overcast,100,2012-11-20 02:36:00
5:56 PM,35.6,21.2,56,29.31,10.0,East,17.3,23.0,N/A,,Overcast,100,2012-11-20 02:56:00
6:16 PM,35.6,21.2,56,29.32,10.0,ESE,13.8,-,N/A,,Overcast,110,2012-11-20 03:16:00
6:36 PM,35.6,21.2,56,29.33,10.0,East,16.1,-,N/A,,Overcast,100,2012-11-20 03:36:00
6:56 PM,35.6,21.2,56,29.33,10.0,ESE,18.4,24.2,N/A,,Overcast,110,2012-11-20 03:56:00
7:16 PM,35.6,21.2,56,29.34,10.0,East,18.4,-,N/A,,Overcast,100,2012-11-20 04:16:00
7:36 PM,35.6,21.2,56,29.35,10.0,East,16.1,21.9,N/A,,Overcast,100,2012-11-20 04:36:00
7:56 PM,37.4,19.4,48,29.35,10.0,East,15.0,20.7,N/A,,Mostly Cloudy,100,2012-11-20 04:56:00
8:16 PM,35.6,21.2,56,29.36,10.0,ESE,13.8,17.3,N/A,,Mostly Cloudy,110,2012-11-20 05:16:00
8:36 PM,35.6,21.2,56,29.37,10.0,East,17.3,-,N/A,,Mostly Cloudy,100,2012-11-20 05:36:00
8:56 PM,35.6,19.4,52,29.38,10.0,East,16.1,25.3,N/A,,Mostly Cloudy,100,2012-11-20 05:56:00
9:16 PM,35.6,19.4,52,29.39,10.0,East,17.3,25.3,N/A,,Mostly Cloudy,100,2012-11-20 06:16:00
9:36 PM,35.6,21.2,56,29.39,10.0,East,16.1,20.7,N/A,,Mostly Cloudy,90,2012-11-20 06:36:00
9:56 PM,35.6,19.4,52,29.40,10.0,East,17.3,21.9,N/A,,Mostly Cloudy,100,2012-11-20 06:56:00
10:16 PM,35.6,19.4,52,29.40,10.0,ESE,16.1,-,N/A,,Mostly Cloudy,110,2012-11-20 07:16:00
10:36 PM,35.6,21.2,56,29.41,10.0,East,16.1,-,N/A,,Mostly Cloudy,100,2012-11-20 07:36:00
10:56 PM,35.6,21.2,56,29.41,10.0,ESE,17.3,-,N/A,,Mostly Cloudy,110,2012-11-20 07:56:00
11:16 PM,35.6,19.4,52,29.40,10.0,East,20.7,25.3,N/A,,Overcast,90,2012-11-20 08:16:00
11:36 PM,35.6,21.2,56,29.40,10.0,ESE,17.3,23.0,N/A,,Overcast,110,2012-11-20 08:36:00
11:56 PM,35.6,21.2,56,29.41,10.0,East,17.3,23.0,N/A,,Overcast,100,2012-11-20 08:56:00